{"data":{"norad_id":66688,"intl_designator":"2025-276Y","name":"WISDOM A","alt_names":[],"object_type":"PAYLOAD","status":"ACTIVE","operator":null,"country":"HUN","launch_date":"2025-11-28","launch_site_code":"AFWTR","launch_vehicle":null,"mission":null,"orbit_class":"UNKNOWN","rcs_meters":null,"size_class":null,"mass_kg":null,"dimensions":null,"purposes":[],"wikipedia_slug":null,"has_3d_model":false,"image_url":null,"decayed_at":null,"tle_current":{"epoch":"2026-05-25T03:22:16.730688Z","epoch_age_seconds":63253,"freshness":"FRESH","line1":"1 66688U 25276Y   26145.14047142  .00004852  00000+0  23449-3 0  9990","line2":"2 66688  97.4225 219.0141 0006546  83.8471 276.3510 15.19075359 26912","mean_motion":15.19075359,"eccentricity":0.0006546,"inclination_deg":97.4225,"raan_deg":219.0141,"arg_perigee_deg":83.8471,"mean_anomaly_deg":276.351,"bstar":0.00023449,"rev_number":2691,"period_min":94.794507163091,"perigee_km":504.12570744748,"apogee_km":513.14186776261,"semimajor_km":6886.770787605,"source":"CELESTRAK","updated_at":"2026-05-25T13:38:06.412576Z"}}}